TimeCDT,TemperatureF,Dew PointF,Humidity,Sea Level PressureIn,VisibilityMPH,Wind Direction,Wind SpeedMPH,Gust SpeedMPH,PrecipitationIn,Events,Conditions,WindDirDegrees,DateUTC
12:53 AM,46.9,42.1,83,30.32,10.0,Calm,Calm,-,N/A,,Clear,0,2013-04-26 05:53:00
1:53 AM,45.0,42.1,90,30.31,10.0,Calm,Calm,-,N/A,,Clear,0,2013-04-26 06:53:00
2:53 AM,45.0,42.1,90,30.30,10.0,Calm,Calm,-,N/A,,Clear,0,2013-04-26 07:53:00
3:53 AM,46.9,43.0,86,30.29,10.0,NE,3.5,-,N/A,,Clear,50,2013-04-26 08:53:00
4:53 AM,44.1,39.9,85,30.30,10.0,NE,5.8,-,N/A,,Clear,50,2013-04-26 09:53:00
5:53 AM,44.1,41.0,89,30.32,10.0,NE,5.8,-,N/A,,Clear,50,2013-04-26 10:53:00
6:53 AM,44.1,41.0,89,30.35,10.0,NNE,3.5,-,N/A,,Clear,30,2013-04-26 11:53:00
7:53 AM,51.1,44.1,77,30.36,10.0,Calm,Calm,-,N/A,,Clear,0,2013-04-26 12:53:00
8:53 AM,59.0,39.0,48,30.35,10.0,SSE,6.9,-,N/A,,Clear,150,2013-04-26 13:53:00
9:53 AM,64.0,35.1,34,30.36,10.0,South,11.5,17.3,N/A,,Clear,170,2013-04-26 14:53:00
10:53 AM,66.9,37.0,33,30.35,10.0,East,6.9,-,N/A,,Partly Cloudy,80,2013-04-26 15:53:00
11:53 AM,70.0,37.9,31,30.32,10.0,East,8.1,-,N/A,,Scattered Clouds,100,2013-04-26 16:53:00
12:53 PM,73.0,37.9,28,30.28,10.0,SE,10.4,-,N/A,,Clear,140,2013-04-26 17:53:00
1:53 PM,73.0,37.0,27,30.27,10.0,South,8.1,-,N/A,,Clear,190,2013-04-26 18:53:00
2:53 PM,72.0,39.0,30,30.26,10.0,SSW,4.6,-,N/A,,Overcast,200,2013-04-26 19:53:00
3:05 PM,71.6,37.4,29,30.27,10.0,Calm,Calm,-,N/A,Thunderstorm,Thunderstorm,0,2013-04-26 20:05:00
3:53 PM,64.0,46.0,52,30.28,10.0,ENE,8.1,-,0.01,Thunderstorm,Thunderstorm,60,2013-04-26 20:53:00
4:35 PM,66.2,46.4,49,30.24,10.0,ESE,6.9,-,N/A,,Overcast,110,2013-04-26 21:35:00
4:53 PM,66.9,45.0,45,30.23,10.0,SE,4.6,-,N/A,,Mostly Cloudy,130,2013-04-26 21:53:00
5:51 PM,64.4,48.2,56,30.24,10.0,ENE,8.1,-,N/A,Thunderstorm,Thunderstorm,70,2013-04-26 22:51:00
5:53 PM,64.9,46.9,52,30.24,10.0,East,8.1,-,N/A,Thunderstorm,Thunderstorm,80,2013-04-26 22:53:00
6:05 PM,64.4,44.6,49,30.23,10.0,East,9.2,-,N/A,Thunderstorm,Overcast,90,2013-04-26 23:05:00
6:25 PM,64.4,42.8,45,30.21,10.0,East,10.4,-,N/A,,Mostly Cloudy,90,2013-04-26 23:25:00
6:53 PM,64.0,42.1,45,30.22,10.0,East,4.6,-,N/A,,Overcast,80,2013-04-26 23:53:00
7:22 PM,64.4,42.8,45,30.21,10.0,East,3.5,-,N/A,Thunderstorm,Thunderstorm,100,2013-04-27 00:22:00
7:53 PM,62.1,45.0,53,30.21,10.0,ENE,4.6,-,N/A,,Overcast,70,2013-04-27 00:53:00
8:53 PM,61.0,48.0,62,30.23,10.0,East,10.4,-,N/A,,Overcast,80,2013-04-27 01:53:00
9:53 PM,60.1,48.0,64,30.23,10.0,East,8.1,-,N/A,,Overcast,80,2013-04-27 02:53:00
10:53 PM,60.1,48.9,67,30.22,10.0,ENE,8.1,-,N/A,,Overcast,70,2013-04-27 03:53:00
11:49 PM,57.2,50.0,77,30.25,10.0,NE,12.7,-,0.00,Rain-Thunderstorm,Light Thunderstorms and Rain,50,2013-04-27 04:49:00
11:53 PM,57.0,50.0,77,30.24,10.0,ENE,11.5,-,0.00,Rain-Thunderstorm,Light Thunderstorms and Rain,60,2013-04-27 04:53:00